YAOGAN-33 03

Satellite information

Favourite Embed

Satellite Type and Status

PAYLOADIN ORBIT

Key statistics

Satellite YAOGAN-33 03 at a glance.

Uptime

834

Days in orbit

Revolutions

≈ 14.6

Per day

Orbit

SSO

Sun Synchronous Orbit

Inclination

98.2

Latest

Satellite identification and parameters

Extended collection of information and parameters for YAOGAN-33 03.

Object identification

Identified? True

Debris? False

Object name: YAOGAN-33 03

International designator: 2023-136A

Object number (NORAD): 57797

Object ID (CCSDS): 57797

Country: PEOPLES REPUBLIC OF CHINA (PRC)

Current information (Y/N): Y

RCS size: LARGE

Orbital parameters

Period: 98.717 minutes

Inclination: 98.191 deg

SMA: 7075.468 km

Apoapsis: 704.054 km

Periapsis: 690.612 km

RAAN: 272.841 deg

Eccentricy: 0.00094995

Argument of periapsis: 36.8427 deg

Mean anomaly: 323.3423 deg

Mean motion: 14.58713542 rev/day

Mean motion (dot): 0.00000522 rev/day2

B* drag term: 0.00012169915 1/REarth

Two-line elements (TLE)

Creation date: Dec. 17, 2025, 2:25 a.m.

Reference frame: TEME

Reference center: EARTH

Epoch: Dec. 17, 2025, 12:07 a.m. UTC

TLE line 0: 0 YAOGAN-33 03

TLE line 1: 1 57797U 23136A 25351.00552889 .00000522 00000-0 12170-3 0 9996

TLE line 2: 2 57797 98.1910 272.8410 0009499 36.8427 323.3423 14.58713542121374

Live tracking on map

Real-time ground track for satellite YAOGAN-33 03.

In-orbit conjunctions

There are no conjunctions computed for YAOGAN-33 03, at the moment. Check back to stay up to date, as we update our databases every day.

Go to all conjunctions

Associated space launch

The Yaogan 33-03 is a Chinese military “remote sensing” satellite of unknown purpose.

YAOGAN-33 03 was lifted into orbit during the mission ‘Long March 4C | Yaogan 33-03’, on board a Long March 4C space rocket.

The launch took place on Sept. 6, 2023, 6:14 p.m. from Launch Area 94 (SLS-2 / 603).

For more information about the launch, click the button.

Launch to space Long March 4C | Yaogan 33-03
Long March 4C | Yaogan 33-03

Agency: N/A

Status: Launch Successful

Launch date: Sept. 6, 2023, 6:14 p.m. UTC

Rocket: Long March 4C

Launch pad: Launch Area 94 (SLS-2 / 603)

Location: Jiuquan Satellite Launch Center, People's Republic of China

...

Latest news about this satellite

There are no fresh news available about this satellite. Check back as we update our databases every day.


Newsletter sign-up

Weekly statistics, charts and insights to help you stay on top of the space industry.